Orbital Elements at Epoch 2459200.5 (2020-Dec-17.0) TDB
Reference: JPL 18 (heliocentric ecliptic J2000)
Element | Value | Uncertainty (1-sigma) | Units |
e | .04804129853037981 | 5.025e-08 | |
a | 2.263874218452363 | 1.374e-08 | au |
q | 2.155114761288463 | 1.1639e-07 | au |
i | 7.433481177143193 | 4.3643e-06 | deg |
node | 112.5439571753274 | 4.2668e-05 | deg |
peri | 108.8892456046449 | 6.8582e-05 | deg |
M | 308.0937967685626 | 5.6503e-05 | deg |
tp | 2459379.888099738629 (2021-Jun-14.38809974) | 0.00019604 | TDB |
period | 1244.161812759854 3.41 | 1.1326e-05 3.101e-08 | d yr |
n | .2893514302624611 | 2.6341e-09 | deg/d |
Q | 2.372633675616263 | 1.44e-08 | au |
|
| | Orbit Determination Parameters
Additional Information
|